Change the Weather History Date:

Friday, August 16, 2013

  Actual Average Record
Temperature  
Mean Temperature 59 °F -  
Max Temperature 86 °F 74 °F 86 °F (2013)
Min Temperature 32 °F 42 °F 30 °F (2011)
Degree Days  
Heating Degree Days 6    
Growing Degree Days 9 (Base 50)    
Moisture  
Dew Point 57 °F    
Average Humidity 86    
Maximum Humidity 100    
Minimum Humidity 81    
Precipitation  
Precipitation 0.00 in - - ()
Sea Level Pressure  
Sea Level Pressure 30.25 in    
Wind  
Wind Speed 3 mph (SW)    
Max Wind Speed 20 mph    
Max Gust Speed 31 mph    
Visibility 10 miles    
Events      
Averages and records for this station are not official NWS values.
T = Trace of Precipitation, MM = Missing Value Source: NWS Daily Summary

Daily Weather History Graph

Daily Weather History Graph

Search for Another Location

Airport or City:

Trip Planner

Search our weather history database for the weather conditions in past years. The results will help you decide how hot, cold, wet, or windy it might be!

Date:

Astronomy

Aug. 16, 2013 Rise Set
Actual Time 6:28 AM MDT 8:28 PM MDT
Civil Twilight 5:56 AM MDT 8:59 PM MDT
Nautical Twilight 5:17 AM MDT 9:38 PM MDT
Astronomical Twilight 4:35 AM MDT 10:20 PM MDT
Moon 4:55 PM MDT (8/16) 1:29 AM MDT (8/16)
Length of Visible Light 15h 02m
Length of Day
13h 59m
Waxing Gibbous, 75% of the Moon is Illuminated
Aug 16
Waxing Gibbous
Aug 20
Full
Aug 28
Last Quarter
Sep 5
New
Sep 12
First Quarter

Hourly Weather History & Observations

Time (MDT) Temp. Windchill Dew Point Humidity Pressure Visibility Wind Dir Wind Speed Gust Speed Precip Events Conditions
12:10 AM 50.0 °F - 46.4 °F 87% 30.24 in 10.0 mi Calm Calm - N/A   Clear
12:30 AM 48.2 °F - 42.8 °F 82% 30.24 in 10.0 mi Calm Calm - N/A   Clear
12:50 AM 46.4 °F - 41.0 °F 81% 30.25 in 10.0 mi Calm Calm - N/A   Clear
1:10 AM 44.6 °F - 41.0 °F 87% 30.25 in 10.0 mi Calm Calm - N/A   Clear
1:30 AM 44.6 °F 43.1 °F 39.2 °F 81% 30.25 in 10.0 mi SSW 3.5 mph - N/A   Clear
1:50 AM 44.6 °F - 39.2 °F 81% 30.25 in 10.0 mi Calm Calm - N/A   Clear
2:10 AM 41.0 °F - 37.4 °F 87% 30.25 in 10.0 mi Calm Calm - N/A   Clear
2:30 AM 41.0 °F - 35.6 °F 81% 30.25 in 10.0 mi Calm Calm - N/A   Clear
2:50 AM 39.2 °F 37.0 °F 35.6 °F 87% 30.25 in 10.0 mi SW 3.5 mph - N/A   Clear
3:10 AM 41.0 °F - 35.6 °F 81% 30.25 in 10.0 mi Calm Calm - N/A   Clear
3:30 AM 39.2 °F - 33.8 °F 81% 30.26 in 10.0 mi Calm Calm - N/A   Clear
3:50 AM 37.4 °F - 32.0 °F 81% 30.26 in 10.0 mi Calm Calm - N/A   Clear
4:10 AM 37.4 °F - 37.4 °F 100% 30.26 in 10.0 mi Calm Calm - N/A   Clear
4:30 AM 35.6 °F - 35.6 °F 100% 30.26 in 10.0 mi Calm Calm - N/A   Clear
4:50 AM 35.6 °F - 35.6 °F 100% 30.26 in 10.0 mi Calm Calm - N/A   Partly Cloudy
5:10 AM 35.6 °F - 35.6 °F 100% 30.26 in 10.0 mi Calm Calm - N/A   Partly Cloudy
5:30 AM 33.8 °F - 33.8 °F 100% 30.27 in 10.0 mi Calm Calm - N/A   Clear
5:50 AM 33.8 °F - 30.2 °F 87% 30.27 in 10.0 mi Calm Calm - N/A   Clear
6:10 AM 32.0 °F - 32.0 °F 100% 30.27 in 10.0 mi Calm Calm - N/A   Partly Cloudy
6:30 AM 32.0 °F - 30.2 °F 93% 30.28 in 10.0 mi Calm Calm - N/A   Clear
6:50 AM 32.0 °F - 28.4 °F 87% 30.28 in 10.0 mi Calm Calm - N/A   Clear
7:10 AM 32.0 °F - 28.4 °F 87% 30.29 in 10.0 mi Calm Calm - N/A   Clear
7:30 AM 33.8 °F - 30.2 °F 87% 30.29 in 10.0 mi Calm Calm - N/A   Clear
7:50 AM 37.4 °F - 32.0 °F 81% 30.30 in 10.0 mi Calm Calm - N/A   Clear
8:10 AM 41.0 °F - 37.4 °F 87% 30.30 in 10.0 mi Calm Calm - N/A   Clear
8:30 AM 44.6 °F - 41.0 °F 87% 30.30 in 10.0 mi Calm Calm - N/A   Clear
8:50 AM 48.2 °F - 44.6 °F 87% 30.30 in 10.0 mi Calm Calm - N/A   Clear
9:10 AM 50.0 °F - 46.4 °F 87% 30.31 in 10.0 mi Calm Calm - N/A   Clear
9:30 AM 55.4 °F - 50.0 °F 82% 30.30 in 10.0 mi Calm Calm - N/A   Clear
9:50 AM 57.2 °F - 53.6 °F 88% 30.30 in 10.0 mi Calm Calm - N/A   Clear
10:10 AM 60.8 °F - 55.4 °F 82% 30.30 in 10.0 mi Calm Calm - N/A   Clear
10:30 AM 62.6 °F - 59.0 °F 88% 30.29 in 10.0 mi Calm Calm - N/A   Clear
10:50 AM 66.2 °F - 62.6 °F 88% 30.29 in 10.0 mi Calm Calm - N/A   Clear
11:10 AM 69.8 °F - 64.4 °F 83% 30.28 in 10.0 mi Calm Calm - N/A   Clear
11:30 AM 73.4 °F - 68.0 °F 83% 30.27 in 10.0 mi Calm Calm - N/A   Clear
11:50 AM 75.2 °F - 71.6 °F 89% 30.27 in 10.0 mi SSW 3.5 mph - N/A   Clear
12:10 PM 80.6 °F - 75.2 °F 84% 30.26 in 10.0 mi West 6.9 mph - N/A   Clear
12:30 PM 82.4 °F - 77.0 °F 84% 30.25 in 10.0 mi WSW 5.8 mph - N/A   Clear
12:50 PM 84.2 °F - 78.8 °F 84% 30.24 in 10.0 mi SSW 15.0 mph 24.2 mph N/A   Clear
1:10 PM 84.2 °F - 80.6 °F 89% 30.24 in 10.0 mi SSW 11.5 mph 21.9 mph N/A   Clear
1:30 PM 86.0 °F - 80.6 °F 84% 30.23 in 10.0 mi SSW 18.4 mph 26.5 mph N/A   Clear
1:50 PM 86.0 °F - 80.6 °F 84% 30.23 in 10.0 mi SSW 19.6 mph 26.5 mph N/A   Clear
2:10 PM 86.0 °F - 80.6 °F 84% 30.23 in 10.0 mi SSW 11.5 mph 31.1 mph N/A   Clear
2:30 PM 86.0 °F - 80.6 °F 84% 30.23 in 10.0 mi SSW 15.0 mph 28.8 mph N/A   Clear
2:50 PM 86.0 °F - 80.6 °F 84% 30.23 in 10.0 mi WSW 15.0 mph 26.5 mph N/A   Clear
3:10 PM 86.0 °F - 80.6 °F 84% 30.23 in 10.0 mi WSW 9.2 mph 28.8 mph N/A   Clear
3:30 PM 86.0 °F - 80.6 °F 84% 30.23 in 10.0 mi WSW 12.7 mph 25.3 mph N/A   Clear
3:50 PM 86.0 °F - 82.4 °F 89% 30.22 in 10.0 mi WSW 13.8 mph 25.3 mph N/A   Clear
4:10 PM 84.2 °F - 80.6 °F 89% 30.22 in 10.0 mi SSW 11.5 mph 27.6 mph N/A   Clear
4:30 PM 86.0 °F - 80.6 °F 84% 30.22 in 10.0 mi SW 13.8 mph 24.2 mph N/A   Clear
4:50 PM 86.0 °F - 82.4 °F 89% 30.22 in 10.0 mi SW 18.4 mph 27.6 mph N/A   Clear
5:10 PM 84.2 °F - 80.6 °F 89% 30.22 in 10.0 mi SW 10.4 mph 24.2 mph N/A   Clear
5:30 PM 86.0 °F - 80.6 °F 84% 30.21 in 10.0 mi SW 11.5 mph 19.6 mph N/A   Clear
5:50 PM 84.2 °F - 80.6 °F 89% 30.21 in 10.0 mi WSW 16.1 mph 23.0 mph N/A   Clear
6:10 PM 84.2 °F - 80.6 °F 89% 30.21 in 10.0 mi SW 15.0 mph 19.6 mph N/A   Clear
6:30 PM 84.2 °F - 78.8 °F 84% 30.21 in 10.0 mi SW 15.0 mph 26.5 mph N/A   Clear
6:50 PM 84.2 °F - 78.8 °F 84% 30.21 in 10.0 mi SW 11.5 mph - N/A   Clear
7:10 PM 82.4 °F - 77.0 °F 84% 30.21 in 10.0 mi SW 11.5 mph 19.6 mph N/A   Clear
7:30 PM 82.4 °F - 77.0 °F 84% 30.21 in 10.0 mi SSW 10.4 mph - N/A   Clear
7:50 PM 80.6 °F - 75.2 °F 84% 30.21 in 10.0 mi SSW 10.4 mph - N/A   Clear
8:10 PM 77.0 °F - 71.6 °F 83% 30.22 in 10.0 mi SSW 8.1 mph - N/A   Clear
8:30 PM 73.4 °F - 68.0 °F 83% 30.22 in 10.0 mi SSW 6.9 mph - N/A   Clear
8:50 PM 71.6 °F - 66.2 °F 83% 30.22 in 10.0 mi South 3.5 mph - N/A   Clear
9:10 PM 68.0 °F - 64.4 °F 88% 30.23 in 10.0 mi SSW 5.8 mph - N/A   Clear
9:30 PM 66.2 °F - 62.6 °F 88% 30.23 in 10.0 mi SSW 8.1 mph - N/A   Clear
9:50 PM 68.0 °F - 62.6 °F 83% 30.23 in 10.0 mi SW 4.6 mph - N/A   Clear
10:10 PM 62.6 °F - 57.2 °F 82% 30.24 in 10.0 mi Calm Calm - N/A   Clear
10:30 PM 59.0 °F - 55.4 °F 88% 30.24 in 10.0 mi Calm Calm - N/A   Clear
10:50 PM 57.2 °F - 53.6 °F 88% 30.24 in 10.0 mi NNE 3.5 mph - N/A   Clear
11:10 PM 57.2 °F - 51.8 °F 82% 30.24 in 10.0 mi NE 5.8 mph - N/A   Clear
11:30 PM 59.0 °F - 55.4 °F 88% 30.23 in 10.0 mi SSE 5.8 mph - N/A   Clear
11:50 PM 55.4 °F - 50.0 °F 82% 30.24 in 10.0 mi Calm Calm - N/A   Clear